Back to catalog

STARLINK-35906

AliveCommunicationsVLEO
NORAD 67112·PAYLOAD·🇺🇸 United States

Launched Dec 15, 2025 from Cape Canaveral Space Force Station

Loading…

Next Passes (next 24 hours)

TLE

FreshSource: CelesTrak SupGP

Epoch: Sep 14, 2026, 21:23 UTC

1 67112C 25299L   26257.89145833 -.00007603  00000+0 -27531-3 0  2572
2 67112  43.0018 180.7423 0001288 265.5048 292.9442 15.27590655    17

Track STARLINK-35906 in real time with AllMySat

Download on the App Store